Time,TemperatureF,DewpointF,PressureIn,WindDirection,WindDirectionDegrees,WindSpeedMPH,WindSpeedGustMPH,Humidity,HourlyPrecipIn,Conditions,Clouds,dailyrainin,SoftwareType,DateUTC
2013-05-26 00:01:00,47.4,33.0,30.32,ENE,68,0.0,0.0,57,0.00,,---,0.00,VWS V14.01,2013-05-26 04:01:00,
2013-05-26 00:02:00,47.4,33.0,30.31,ENE,68,0.0,0.0,57,0.00,,---,0.00,VWS V14.01,2013-05-26 04:02:00,
2013-05-26 00:03:00,47.4,33.0,30.31,ENE,68,0.0,0.0,57,0.00,,---,0.00,VWS V14.01,2013-05-26 04:03:00,
2013-05-26 00:05:00,47.4,33.4,30.31,ENE,68,0.0,0.0,58,0.00,,---,0.00,VWS V14.01,2013-05-26 04:05:00,
2013-05-26 00:06:00,47.3,33.3,30.31,ENE,68,0.0,0.0,58,0.00,,---,0.00,VWS V14.01,2013-05-26 04:06:00,
2013-05-26 00:11:00,47.1,33.1,30.31,ENE,68,0.0,0.0,58,0.00,,---,0.00,VWS V14.01,2013-05-26 04:11:00,
2013-05-26 00:16:00,46.9,32.9,30.31,ENE,68,0.0,0.0,58,0.00,,---,0.00,VWS V14.01,2013-05-26 04:16:00,
2013-05-26 00:21:00,46.7,33.2,30.31,ENE,68,0.0,0.0,59,0.00,,---,0.00,VWS V14.01,2013-05-26 04:21:00,
2013-05-26 00:26:00,46.5,33.0,30.31,ENE,68,0.0,0.0,59,0.00,,---,0.00,VWS V14.01,2013-05-26 04:26:00,
2013-05-26 00:31:00,46.4,32.9,30.31,ENE,68,0.0,0.0,59,0.00,,---,0.00,VWS V14.01,2013-05-26 04:31:00,
2013-05-26 00:36:00,46.0,32.9,30.31,ENE,68,0.0,0.0,60,0.00,,---,0.00,VWS V14.01,2013-05-26 04:36:00,
2013-05-26 00:41:00,46.0,32.9,30.31,ENE,68,0.0,0.0,60,0.00,,---,0.00,VWS V14.01,2013-05-26 04:41:00,
2013-05-26 00:46:00,45.6,32.5,30.31,ENE,68,0.0,0.0,60,0.00,,---,0.00,VWS V14.01,2013-05-26 04:46:00,
2013-05-26 00:51:00,45.3,32.7,30.31,ENE,68,0.0,0.0,61,0.00,,---,0.00,VWS V14.01,2013-05-26 04:51:00,
2013-05-26 00:56:00,45.1,32.5,30.31,ENE,68,0.0,0.0,61,0.00,,---,0.00,VWS V14.01,2013-05-26 04:56:00,
2013-05-26 01:01:00,45.1,32.5,30.31,ENE,68,0.0,0.0,61,0.00,,---,0.00,VWS V14.01,2013-05-26 05:01:00,
2013-05-26 01:07:00,45.1,-10.2,30.31,ENE,68,0.0,0.0,61,0.00,,---,0.00,VWS V14.01,2013-05-26 05:07:00,
2013-05-26 01:12:00,44.4,32.6,30.31,ENE,68,0.0,0.0,63,0.00,,---,0.00,VWS V14.01,2013-05-26 05:12:00,
2013-05-26 01:17:00,44.4,32.6,30.31,ENE,68,0.0,0.0,63,0.00,,---,0.00,VWS V14.01,2013-05-26 05:17:00,
2013-05-26 01:22:00,44.4,32.6,30.31,ENE,68,0.0,0.0,63,0.00,,---,0.00,VWS V14.01,2013-05-26 05:22:00,
2013-05-26 01:27:00,44.2,32.8,30.31,ENE,68,0.0,0.0,64,0.00,,---,0.00,VWS V14.01,2013-05-26 05:27:00,
2013-05-26 01:32:00,43.8,32.4,30.31,ENE,68,0.0,0.0,64,0.00,,---,0.00,VWS V14.01,2013-05-26 05:32:00,
2013-05-26 01:37:00,43.8,32.8,30.31,ENE,68,0.0,0.0,65,0.00,,---,0.00,VWS V14.01,2013-05-26 05:37:00,
2013-05-26 01:42:00,43.5,32.5,30.31,ENE,68,0.0,0.0,65,0.00,,---,0.00,VWS V14.01,2013-05-26 05:42:00,
2013-05-26 01:47:00,43.5,32.5,30.31,ENE,68,0.0,0.0,65,0.00,,---,0.00,VWS V14.01,2013-05-26 05:47:00,
2013-05-26 01:52:00,43.3,32.3,30.30,ENE,68,0.0,0.0,65,0.00,,---,0.00,VWS V14.01,2013-05-26 05:52:00,
2013-05-26 01:57:00,43.1,32.5,30.30,ENE,68,0.0,0.0,66,0.00,,---,0.00,VWS V14.01,2013-05-26 05:57:00,
2013-05-26 02:02:00,43.1,32.5,30.30,ENE,68,0.0,0.0,66,0.00,,---,0.00,VWS V14.01,2013-05-26 06:02:00,
2013-05-26 02:08:00,42.6,32.0,30.30,ENE,68,0.0,0.0,66,0.00,,---,0.00,VWS V14.01,2013-05-26 06:08:00,
2013-05-26 02:13:00,42.6,32.0,30.30,ENE,68,0.0,0.0,66,0.00,,---,0.00,VWS V14.01,2013-05-26 06:13:00,
2013-05-26 02:18:00,42.6,32.4,30.30,ENE,68,0.0,0.0,67,0.00,,---,0.00,VWS V14.01,2013-05-26 06:18:00,
2013-05-26 02:23:00,42.4,32.2,30.30,ENE,68,0.0,0.0,67,0.00,,---,0.00,VWS V14.01,2013-05-26 06:23:00,
2013-05-26 02:28:00,42.4,32.6,30.30,ENE,68,0.0,0.0,68,0.00,,---,0.00,VWS V14.01,2013-05-26 06:28:00,
2013-05-26 02:33:00,42.4,32.6,30.30,ENE,68,0.0,0.0,68,0.00,,---,0.00,VWS V14.01,2013-05-26 06:33:00,
2013-05-26 02:38:00,42.4,32.6,30.29,ENE,68,0.0,0.0,68,0.00,,---,0.00,VWS V14.01,2013-05-26 06:38:00,
2013-05-26 02:43:00,42.2,32.4,30.30,ENE,68,0.0,0.0,68,0.00,,---,0.00,VWS V14.01,2013-05-26 06:43:00,
2013-05-26 02:48:00,42.0,32.2,30.29,ENE,68,0.0,0.0,68,0.00,,---,0.00,VWS V14.01,2013-05-26 06:48:00,
2013-05-26 02:53:00,42.0,32.2,30.29,ENE,68,0.0,0.0,68,0.00,,---,0.00,VWS V14.01,2013-05-26 06:53:00,
2013-05-26 02:58:00,41.9,32.1,30.29,ENE,68,0.0,0.0,68,0.00,,---,0.00,VWS V14.01,2013-05-26 06:58:00,
2013-05-26 03:03:00,41.7,-8.0,30.29,ENE,68,0.0,0.0,68,0.00,,---,0.00,VWS V14.01,2013-05-26 07:03:00,
2013-05-26 03:09:00,41.7,-8.0,30.29,ENE,68,0.0,0.0,68,0.00,,---,0.00,VWS V14.01,2013-05-26 07:09:00,
2013-05-26 03:14:00,41.7,-8.0,30.29,ENE,68,0.0,0.0,68,0.00,,---,0.00,VWS V14.01,2013-05-26 07:14:00,
2013-05-26 03:19:00,41.7,31.9,30.29,ENE,68,0.0,0.0,68,0.00,,---,0.00,VWS V14.01,2013-05-26 07:19:00,
2013-05-26 03:24:00,41.5,32.1,30.29,ENE,68,0.0,0.0,69,0.00,,---,0.00,VWS V14.01,2013-05-26 07:24:00,
2013-05-26 03:29:00,41.5,32.5,30.29,ENE,68,0.0,0.0,70,0.00,,---,0.00,VWS V14.01,2013-05-26 07:29:00,
2013-05-26 03:34:00,41.5,32.5,30.29,ENE,68,0.0,0.0,70,0.00,,---,0.00,VWS V14.01,2013-05-26 07:34:00,
2013-05-26 03:39:00,41.5,32.5,30.29,ENE,68,0.0,0.0,70,0.00,,---,0.00,VWS V14.01,2013-05-26 07:39:00,
2013-05-26 03:44:00,41.5,32.5,30.29,ENE,68,0.0,0.0,70,0.00,,---,0.00,VWS V14.01,2013-05-26 07:44:00,
2013-05-26 03:49:00,41.5,32.5,30.29,ENE,68,0.0,0.0,70,0.00,,---,0.00,VWS V14.01,2013-05-26 07:49:00,
2013-05-26 03:54:00,41.3,32.3,30.28,ENE,68,0.0,0.0,70,0.00,,---,0.00,VWS V14.01,2013-05-26 07:54:00,
2013-05-26 03:59:00,41.3,32.6,30.29,ENE,68,0.0,0.0,71,0.00,,---,0.00,VWS V14.01,2013-05-26 07:59:00,
2013-05-26 04:04:00,41.1,32.4,30.29,ENE,68,0.0,0.0,71,0.00,,---,0.00,VWS V14.01,2013-05-26 08:04:00,
2013-05-26 04:09:00,41.0,32.3,30.29,ENE,68,0.0,0.0,71,0.00,,---,0.00,VWS V14.01,2013-05-26 08:09:00,
2013-05-26 04:14:00,40.8,32.1,30.29,ENE,68,0.0,0.0,71,0.00,,---,0.00,VWS V14.01,2013-05-26 08:14:00,
2013-05-26 04:19:00,40.8,32.1,30.29,ENE,68,0.0,0.0,71,0.00,,---,0.00,VWS V14.01,2013-05-26 08:19:00,
2013-05-26 04:24:00,40.6,32.3,30.29,ENE,68,0.0,0.0,72,0.00,,---,0.00,VWS V14.01,2013-05-26 08:24:00,
2013-05-26 04:29:00,40.2,32.2,30.29,ENE,68,0.0,0.0,73,0.00,,---,0.00,VWS V14.01,2013-05-26 08:29:00,
2013-05-26 04:34:00,40.2,32.2,30.29,ENE,68,0.0,0.0,73,0.00,,---,0.00,VWS V14.01,2013-05-26 08:34:00,
2013-05-26 04:39:00,40.1,32.2,30.29,ENE,68,0.0,0.0,73,0.00,,---,0.00,VWS V14.01,2013-05-26 08:39:00,
2013-05-26 04:44:00,40.1,32.5,30.29,ENE,68,0.0,0.0,74,0.00,,---,0.00,VWS V14.01,2013-05-26 08:44:00,
2013-05-26 04:49:00,39.9,32.6,30.29,ENE,68,0.0,0.0,75,0.00,,---,0.00,VWS V14.01,2013-05-26 08:49:00,
2013-05-26 04:54:00,39.9,33.0,30.29,ENE,68,0.0,0.0,76,0.00,,---,0.00,VWS V14.01,2013-05-26 08:54:00,
2013-05-26 04:59:00,39.7,32.8,30.29,ENE,68,0.0,0.0,76,0.00,,---,0.00,VWS V14.01,2013-05-26 08:59:00,
2013-05-26 05:04:00,39.7,32.4,30.29,ENE,68,0.0,0.0,75,0.00,,---,0.00,VWS V14.01,2013-05-26 09:04:00,
2013-05-26 05:09:00,39.7,32.8,30.29,ENE,68,0.0,0.0,76,0.00,,---,0.00,VWS V14.01,2013-05-26 09:09:00,
2013-05-26 05:14:00,39.7,32.8,30.29,ENE,68,0.0,0.0,76,0.00,,---,0.00,VWS V14.01,2013-05-26 09:14:00,
2013-05-26 05:19:00,39.7,32.8,30.29,ENE,68,0.0,0.0,76,0.00,,---,0.00,VWS V14.01,2013-05-26 09:19:00,
2013-05-26 05:24:00,39.7,32.8,30.30,ENE,68,0.0,0.0,76,0.00,,---,0.00,VWS V14.01,2013-05-26 09:24:00,
2013-05-26 05:29:00,39.5,32.6,30.30,ENE,68,0.0,0.0,76,0.00,,---,0.00,VWS V14.01,2013-05-26 09:29:00,
2013-05-26 05:34:00,39.3,32.0,30.30,ENE,68,0.0,0.0,75,0.00,,---,0.00,VWS V14.01,2013-05-26 09:34:00,
2013-05-26 05:39:00,39.3,32.0,30.30,ENE,68,0.0,0.0,75,0.00,,---,0.00,VWS V14.01,2013-05-26 09:39:00,
2013-05-26 05:44:00,39.3,32.4,30.31,ENE,68,0.0,0.0,76,0.00,,---,0.00,VWS V14.01,2013-05-26 09:44:00,
2013-05-26 05:49:00,39.3,32.4,30.31,ENE,68,0.0,0.0,76,0.00,,---,0.00,VWS V14.01,2013-05-26 09:49:00,
2013-05-26 05:54:00,39.3,32.4,30.31,ENE,68,0.0,0.0,76,0.00,,---,0.00,VWS V14.01,2013-05-26 09:54:00,
2013-05-26 05:59:00,39.3,32.4,30.30,ENE,68,0.0,0.0,76,0.00,,---,0.00,VWS V14.01,2013-05-26 09:59:00,
2013-05-26 06:04:00,39.3,32.4,30.31,ENE,68,0.0,0.0,76,0.00,,---,0.00,VWS V14.01,2013-05-26 10:04:00,
2013-05-26 06:09:00,39.0,32.1,30.31,ENE,68,0.0,0.0,76,0.00,,---,0.00,VWS V14.01,2013-05-26 10:09:00,
2013-05-26 06:14:00,39.0,32.1,30.31,ENE,68,0.0,0.0,76,0.00,,---,0.00,VWS V14.01,2013-05-26 10:14:00,
2013-05-26 06:19:00,39.0,32.1,30.31,ENE,68,0.0,0.0,76,0.00,,---,0.00,VWS V14.01,2013-05-26 10:19:00,
2013-05-26 06:24:00,39.0,32.1,30.31,ENE,68,0.0,0.0,76,0.00,,---,0.00,VWS V14.01,2013-05-26 10:24:00,
2013-05-26 06:29:00,39.0,32.1,30.31,ENE,68,0.0,0.0,76,0.00,,---,0.00,VWS V14.01,2013-05-26 10:29:00,
2013-05-26 06:34:00,39.0,32.4,30.31,ENE,68,0.0,0.0,77,0.00,,---,0.00,VWS V14.01,2013-05-26 10:34:00,
2013-05-26 06:39:00,39.0,32.4,30.32,ENE,68,0.0,0.0,77,0.00,,---,0.00,VWS V14.01,2013-05-26 10:39:00,
2013-05-26 06:44:00,39.0,32.4,30.32,ENE,68,0.0,0.0,77,0.00,,---,0.00,VWS V14.01,2013-05-26 10:44:00,
2013-05-26 06:49:00,39.3,32.7,30.32,ENE,68,0.0,0.0,77,0.00,,---,0.00,VWS V14.01,2013-05-26 10:49:00,
2013-05-26 06:54:00,39.3,32.7,30.32,ENE,68,0.0,0.0,77,0.00,,---,0.00,VWS V14.01,2013-05-26 10:54:00,
2013-05-26 06:59:00,39.7,33.1,30.32,ENE,68,0.0,0.0,77,0.00,,---,0.00,VWS V14.01,2013-05-26 10:59:00,
2013-05-26 07:04:00,39.9,33.3,30.32,ENE,68,0.0,0.0,77,0.00,,---,0.00,VWS V14.01,2013-05-26 11:04:00,
2013-05-26 07:09:00,40.2,33.9,30.32,ENE,68,0.0,0.0,78,0.00,,---,0.00,VWS V14.01,2013-05-26 11:09:00,
2013-05-26 07:14:00,40.8,34.5,30.33,ENE,68,0.0,0.0,78,0.00,,---,0.00,VWS V14.01,2013-05-26 11:14:00,
2013-05-26 07:19:00,41.1,34.8,30.33,ENE,68,0.0,0.0,78,0.00,,---,0.00,VWS V14.01,2013-05-26 11:19:00,
2013-05-26 07:24:00,41.5,35.2,30.33,NNW,338,0.0,0.0,78,0.00,,---,0.00,VWS V14.01,2013-05-26 11:24:00,
2013-05-26 07:29:00,42.4,36.0,30.33,NE,45,0.0,0.0,78,0.00,,---,0.00,VWS V14.01,2013-05-26 11:29:00,
2013-05-26 07:34:00,42.8,36.4,30.33,NE,45,0.0,0.0,78,0.00,,---,0.00,VWS V14.01,2013-05-26 11:34:00,
2013-05-26 07:39:00,43.3,36.9,30.32,NE,45,0.0,0.0,78,0.00,,---,0.00,VWS V14.01,2013-05-26 11:39:00,
2013-05-26 07:44:00,44.0,37.3,30.32,NNE,22,0.0,0.0,77,0.00,,---,0.00,VWS V14.01,2013-05-26 11:44:00,
2013-05-26 07:49:00,44.4,37.7,30.33,NNE,22,0.0,0.0,77,0.00,,---,0.00,VWS V14.01,2013-05-26 11:49:00,
2013-05-26 07:54:00,44.9,37.8,30.33,NNE,22,0.0,0.0,76,0.00,,---,0.00,VWS V14.01,2013-05-26 11:54:00,
2013-05-26 07:59:00,45.6,38.5,30.33,North,0,0.0,1.7,76,0.00,,---,0.00,VWS V14.01,2013-05-26 11:59:00,
2013-05-26 08:04:00,46.0,38.5,30.33,NW,315,0.0,0.0,75,0.00,,---,0.00,VWS V14.01,2013-05-26 12:04:00,
2013-05-26 08:09:00,46.5,38.7,30.33,NE,45,0.0,0.0,74,0.00,,---,0.00,VWS V14.01,2013-05-26 12:09:00,
2013-05-26 08:14:00,47.1,38.9,30.33,NNW,338,0.6,0.6,73,0.00,,---,0.00,VWS V14.01,2013-05-26 12:14:00,
2013-05-26 08:19:00,47.6,39.0,30.33,NE,45,0.6,0.6,72,0.00,,---,0.00,VWS V14.01,2013-05-26 12:19:00,
2013-05-26 08:24:00,48.0,39.1,30.33,NE,45,3.1,3.1,71,0.00,,---,0.00,VWS V14.01,2013-05-26 12:24:00,
2013-05-26 08:29:00,48.5,39.2,30.33,NE,45,0.0,0.0,70,0.00,,---,0.00,VWS V14.01,2013-05-26 12:29:00,
2013-05-26 08:34:00,48.9,39.2,30.33,NNW,338,0.0,0.0,69,0.00,,---,0.00,VWS V14.01,2013-05-26 12:34:00,
2013-05-26 08:39:00,49.2,38.7,30.33,NW,315,3.5,3.5,67,0.00,,---,0.00,VWS V14.01,2013-05-26 12:39:00,
2013-05-26 08:44:00,50.1,38.8,30.33,NNW,338,0.0,0.0,65,0.00,,---,0.00,VWS V14.01,2013-05-26 12:44:00,
2013-05-26 08:49:00,50.5,38.8,30.33,NW,315,3.3,3.3,64,0.00,,---,0.00,VWS V14.01,2013-05-26 12:49:00,
2013-05-26 08:54:00,51.0,38.0,30.33,NNW,338,4.0,4.0,61,0.00,,---,0.00,VWS V14.01,2013-05-26 12:54:00,
2013-05-26 08:59:00,51.6,39.0,30.33,NNE,22,0.0,2.9,62,0.00,,---,0.00,VWS V14.01,2013-05-26 12:59:00,
2013-05-26 09:04:00,51.9,39.3,30.34,NNW,338,0.0,0.0,62,0.00,,---,0.00,VWS V14.01,2013-05-26 13:04:00,
2013-05-26 09:09:00,52.3,39.7,30.34,NE,45,0.0,0.0,62,0.00,,---,0.00,VWS V14.01,2013-05-26 13:09:00,
2013-05-26 09:14:00,52.8,40.2,30.34,North,0,0.0,2.4,62,0.00,,---,0.00,VWS V14.01,2013-05-26 13:14:00,
2013-05-26 09:19:00,53.4,41.1,30.34,NNE,22,7.3,7.3,63,0.00,,---,0.00,VWS V14.01,2013-05-26 13:19:00,
2013-05-26 09:24:00,53.6,41.3,30.34,NE,45,2.0,2.0,63,0.00,,---,0.00,VWS V14.01,2013-05-26 13:24:00,
2013-05-26 09:29:00,53.9,41.2,30.34,NW,315,3.1,3.1,62,0.00,,---,0.00,VWS V14.01,2013-05-26 13:29:00,
2013-05-26 09:34:00,54.1,41.4,30.34,NE,45,0.0,0.0,62,0.00,,---,0.00,VWS V14.01,2013-05-26 13:34:00,
2013-05-26 09:39:00,54.1,40.5,30.34,NNW,338,5.5,5.5,60,0.00,,---,0.00,VWS V14.01,2013-05-26 13:39:00,
2013-05-26 09:44:00,54.3,40.3,30.34,NNE,22,5.3,5.3,59,0.00,,---,0.00,VWS V14.01,2013-05-26 13:44:00,
2013-05-26 09:49:00,54.6,40.6,30.34,NW,315,3.1,3.1,59,0.00,,---,0.00,VWS V14.01,2013-05-26 13:49:00,
2013-05-26 09:54:00,55.0,40.1,30.34,NE,45,6.7,6.7,57,0.00,,---,0.00,VWS V14.01,2013-05-26 13:54:00,
2013-05-26 09:59:00,55.2,40.7,30.33,East,90,0.0,0.6,58,0.00,,---,0.00,VWS V14.01,2013-05-26 13:59:00,
2013-05-26 10:05:00,55.5,40.1,30.33,NE,45,6.7,6.7,56,0.00,,---,0.00,VWS V14.01,2013-05-26 14:05:00,
2013-05-26 10:10:00,55.9,39.5,30.33,WNW,292,3.5,3.5,54,0.00,,---,0.00,VWS V14.01,2013-05-26 14:10:00,
2013-05-26 10:15:00,55.9,39.0,30.33,NNW,338,4.0,4.0,53,0.00,,---,0.00,VWS V14.01,2013-05-26 14:15:00,
2013-05-26 10:20:00,56.3,40.4,30.32,NW,315,8.0,8.0,55,0.00,,---,0.00,VWS V14.01,2013-05-26 14:20:00,
2013-05-26 10:25:00,56.6,40.6,30.32,WNW,292,4.2,4.2,55,0.00,,---,0.00,VWS V14.01,2013-05-26 14:25:00,
2013-05-26 10:30:00,56.8,39.9,30.32,NW,315,6.7,6.7,53,0.00,,---,0.00,VWS V14.01,2013-05-26 14:30:00,
2013-05-26 10:35:00,56.8,40.3,30.33,NNW,338,0.0,0.0,54,0.00,,---,0.00,VWS V14.01,2013-05-26 14:35:00,
2013-05-26 10:40:00,57.0,41.0,30.33,NNW,338,4.6,4.6,55,0.00,,---,0.00,VWS V14.01,2013-05-26 14:40:00,
2013-05-26 10:45:00,57.7,41.2,30.33,NW,315,6.9,6.9,54,0.00,,---,0.00,VWS V14.01,2013-05-26 14:45:00,
2013-05-26 10:50:00,57.9,40.4,30.33,NNE,22,0.6,0.6,52,0.00,,---,0.00,VWS V14.01,2013-05-26 14:50:00,
2013-05-26 10:55:00,57.9,40.4,30.33,NNW,338,5.8,5.8,52,0.00,,---,0.00,VWS V14.01,2013-05-26 14:55:00,
2013-05-26 11:00:00,58.2,40.2,30.33,WNW,292,5.1,5.1,51,0.00,,---,0.00,VWS V14.01,2013-05-26 15:00:00,
2013-05-26 11:05:00,58.6,40.5,30.32,NNW,338,1.5,5.1,51,0.00,,---,0.00,VWS V14.01,2013-05-26 15:05:00,
2013-05-26 11:10:00,58.8,39.7,30.32,NW,315,4.6,5.8,49,0.00,,---,0.00,VWS V14.01,2013-05-26 15:10:00,
2013-05-26 11:15:00,58.6,40.0,30.32,WNW,292,1.7,1.7,50,0.00,,---,0.00,VWS V14.01,2013-05-26 15:15:00,
2013-05-26 11:20:00,58.8,40.2,30.32,NNE,22,7.1,7.1,50,0.00,,---,0.00,VWS V14.01,2013-05-26 15:20:00,
2013-05-26 11:25:00,58.8,39.2,30.31,NW,315,6.0,6.0,48,0.00,,---,0.00,VWS V14.01,2013-05-26 15:25:00,
2013-05-26 11:30:00,59.0,39.9,30.31,NE,45,7.3,7.3,49,0.00,,---,0.00,VWS V14.01,2013-05-26 15:30:00,
2013-05-26 11:35:00,59.5,40.9,30.31,NNW,338,6.2,6.2,50,0.00,,---,0.00,VWS V14.01,2013-05-26 15:35:00,
2013-05-26 11:40:00,59.7,41.0,30.31,NE,45,1.3,7.3,50,0.00,,---,0.00,VWS V14.01,2013-05-26 15:40:00,
2013-05-26 11:45:00,59.9,41.8,30.31,NE,45,4.4,4.4,51,0.00,,---,0.00,VWS V14.01,2013-05-26 15:45:00,
2013-05-26 11:50:00,60.4,41.7,30.32,ENE,68,2.9,2.9,50,0.00,,---,0.00,VWS V14.01,2013-05-26 15:50:00,
2013-05-26 11:55:00,60.6,41.9,30.32,NNE,22,6.4,6.4,50,0.00,,---,0.00,VWS V14.01,2013-05-26 15:55:00,
2013-05-26 12:00:00,61.1,42.3,30.32,NW,315,2.9,2.9,50,0.00,,---,0.00,VWS V14.01,2013-05-26 16:00:00,
2013-05-26 12:05:00,61.3,41.5,30.32,NNW,338,6.2,6.2,48,0.00,,---,0.00,VWS V14.01,2013-05-26 16:05:00,
2013-05-26 12:10:00,61.3,42.0,30.32,East,90,0.0,0.0,49,0.00,,---,0.00,VWS V14.01,2013-05-26 16:10:00,
2013-05-26 12:15:00,61.3,42.0,30.32,SE,135,2.2,2.2,49,0.00,,---,0.00,VWS V14.01,2013-05-26 16:15:00,
2013-05-26 12:20:00,61.7,41.8,30.32,SE,135,2.4,2.6,48,0.00,,---,0.00,VWS V14.01,2013-05-26 16:20:00,
2013-05-26 12:25:00,61.8,41.4,30.32,ENE,68,4.4,4.4,47,0.00,,---,0.00,VWS V14.01,2013-05-26 16:25:00,
2013-05-26 12:30:00,62.2,41.7,30.32,East,90,0.0,0.0,47,0.00,,---,0.00,VWS V14.01,2013-05-26 16:30:00,
2013-05-26 12:35:00,62.4,41.9,30.32,ENE,68,0.0,4.0,47,0.00,,---,0.00,VWS V14.01,2013-05-26 16:35:00,
2013-05-26 12:40:00,62.4,41.9,30.32,NW,315,8.0,8.0,47,0.00,,---,0.00,VWS V14.01,2013-05-26 16:40:00,
2013-05-26 12:45:00,62.4,41.4,30.32,NNE,22,4.4,4.4,46,0.00,,---,0.00,VWS V14.01,2013-05-26 16:45:00,
2013-05-26 12:50:00,62.4,41.4,30.31,NNE,22,2.4,2.4,46,0.00,,---,0.00,VWS V14.01,2013-05-26 16:50:00,
2013-05-26 12:55:00,62.4,41.9,30.32,NE,45,4.0,4.0,47,0.00,,---,0.00,VWS V14.01,2013-05-26 16:55:00,
2013-05-26 13:00:00,62.7,42.2,30.31,NE,45,6.4,6.4,47,0.00,,---,0.00,VWS V14.01,2013-05-26 17:00:00,
2013-05-26 13:05:00,63.1,41.4,30.31,SSE,158,0.0,6.2,45,0.00,,---,0.00,VWS V14.01,2013-05-26 17:05:00,
2013-05-26 13:10:00,63.3,41.6,30.31,North,0,1.7,8.2,45,0.00,,---,0.00,VWS V14.01,2013-05-26 17:10:00,
2013-05-26 13:15:00,63.3,42.2,30.31,NE,45,0.6,0.6,46,0.00,,---,0.00,VWS V14.01,2013-05-26 17:15:00,
2013-05-26 13:20:00,63.5,41.8,30.31,NE,45,2.6,2.6,45,0.00,,---,0.00,VWS V14.01,2013-05-26 17:20:00,
2013-05-26 13:25:00,63.6,41.3,30.31,NE,45,5.1,5.1,44,0.00,,---,0.00,VWS V14.01,2013-05-26 17:25:00,
2013-05-26 13:30:00,63.6,41.9,30.31,East,90,4.4,4.4,45,0.00,,---,0.00,VWS V14.01,2013-05-26 17:30:00,
2013-05-26 13:35:00,63.8,40.9,30.31,NE,45,5.3,5.3,43,0.00,,---,0.00,VWS V14.01,2013-05-26 17:35:00,
2013-05-26 13:40:00,63.8,41.5,30.31,East,90,2.6,2.6,44,0.00,,---,0.00,VWS V14.01,2013-05-26 17:40:00,
2013-05-26 13:45:00,64.0,42.3,30.31,NE,45,7.3,7.3,45,0.00,,---,0.00,VWS V14.01,2013-05-26 17:45:00,
2013-05-26 13:50:00,64.2,42.4,30.31,East,90,3.3,3.5,45,0.00,,---,0.00,VWS V14.01,2013-05-26 17:50:00,
2013-05-26 13:55:00,64.2,42.4,30.31,East,90,1.5,1.5,45,0.00,,---,0.00,VWS V14.01,2013-05-26 17:55:00,
2013-05-26 14:00:00,64.2,42.4,30.31,ESE,112,4.9,4.9,45,0.00,,---,0.00,VWS V14.01,2013-05-26 18:00:00,
2013-05-26 14:05:00,64.0,40.5,30.31,NNW,338,0.0,4.4,42,0.00,,---,0.00,VWS V14.01,2013-05-26 18:05:00,
2013-05-26 14:10:00,63.6,40.7,30.30,NE,45,7.1,7.1,43,0.00,,---,0.00,VWS V14.01,2013-05-26 18:10:00,
2013-05-26 14:15:00,63.8,40.9,30.30,ESE,112,4.4,4.4,43,0.00,,---,0.00,VWS V14.01,2013-05-26 18:15:00,
2013-05-26 14:20:00,64.0,41.1,30.30,SE,135,0.0,7.3,43,0.00,,---,0.00,VWS V14.01,2013-05-26 18:20:00,
2013-05-26 14:25:00,64.0,41.1,30.30,NE,45,0.8,0.8,43,0.00,,---,0.00,VWS V14.01,2013-05-26 18:25:00,
2013-05-26 14:30:00,64.0,40.5,30.30,NE,45,4.9,4.9,42,0.00,,---,0.00,VWS V14.01,2013-05-26 18:30:00,
2013-05-26 14:35:00,64.2,40.7,30.30,West,270,0.0,0.0,42,0.00,,---,0.00,VWS V14.01,2013-05-26 18:35:00,
2013-05-26 14:40:00,64.2,40.7,30.30,East,90,0.6,0.6,42,0.00,,---,0.00,VWS V14.01,2013-05-26 18:40:00,
2013-05-26 14:45:00,64.2,40.7,30.30,NNW,338,1.3,1.3,42,0.00,,---,0.00,VWS V14.01,2013-05-26 18:45:00,
2013-05-26 14:50:00,64.5,40.3,30.30,NNW,338,0.0,7.1,41,0.00,,---,0.00,VWS V14.01,2013-05-26 18:50:00,
2013-05-26 14:55:00,64.7,40.5,30.30,East,90,0.0,0.0,41,0.00,,---,0.00,VWS V14.01,2013-05-26 18:55:00,
2013-05-26 15:00:00,64.7,40.5,30.30,NE,45,4.4,4.4,41,0.00,,---,0.00,VWS V14.01,2013-05-26 19:00:00,
2013-05-26 15:05:00,64.9,40.0,30.29,NNE,22,0.0,8.7,40,0.00,,---,0.00,VWS V14.01,2013-05-26 19:05:00,
2013-05-26 15:10:00,64.9,40.7,30.30,NE,45,4.4,4.4,41,0.00,,---,0.00,VWS V14.01,2013-05-26 19:10:00,
2013-05-26 15:15:00,64.9,40.0,30.29,SSE,158,6.7,6.7,40,0.00,,---,0.00,VWS V14.01,2013-05-26 19:15:00,
2013-05-26 15:20:00,64.9,40.0,30.29,NE,45,7.6,7.6,40,0.00,,---,0.00,VWS V14.01,2013-05-26 19:20:00,
2013-05-26 15:25:00,65.1,40.2,30.29,South,180,6.7,6.7,40,0.00,,---,0.00,VWS V14.01,2013-05-26 19:25:00,
2013-05-26 15:30:00,64.9,40.0,30.29,NNW,338,3.3,3.3,40,0.00,,---,0.00,VWS V14.01,2013-05-26 19:30:00,
2013-05-26 15:35:00,65.1,39.5,30.29,NNE,22,1.7,5.1,39,0.00,,---,0.00,VWS V14.01,2013-05-26 19:35:00,
2013-05-26 15:40:00,64.9,39.4,30.28,ESE,112,0.0,0.0,39,0.00,,---,0.00,VWS V14.01,2013-05-26 19:40:00,
2013-05-26 15:45:00,64.9,40.0,30.28,ENE,68,8.2,8.2,40,0.00,,---,0.00,VWS V14.01,2013-05-26 19:45:00,
2013-05-26 15:50:00,64.9,40.0,30.28,NE,45,10.0,10.0,40,0.00,,---,0.00,VWS V14.01,2013-05-26 19:50:00,
2013-05-26 15:55:00,65.1,40.2,30.28,ENE,68,2.0,2.0,40,0.00,,---,0.00,VWS V14.01,2013-05-26 19:55:00,
2013-05-26 16:00:00,65.3,40.4,30.27,East,90,4.9,4.9,40,0.00,,---,0.00,VWS V14.01,2013-05-26 20:00:00,
2013-05-26 16:05:00,65.4,40.5,30.27,SE,135,0.0,0.0,40,0.00,,---,0.00,VWS V14.01,2013-05-26 20:05:00,
2013-05-26 16:10:00,65.6,40.7,30.28,NE,45,6.4,6.4,40,0.00,,---,0.00,VWS V14.01,2013-05-26 20:10:00,
2013-05-26 16:15:00,65.8,40.2,30.27,NE,45,2.6,2.6,39,0.00,,---,0.00,VWS V14.01,2013-05-26 20:15:00,
2013-05-26 16:20:00,65.8,40.2,30.27,ENE,68,0.0,0.0,39,0.00,,---,0.00,VWS V14.01,2013-05-26 20:20:00,
2013-05-26 16:25:00,65.8,40.2,30.27,East,90,2.0,2.0,39,0.00,,---,0.00,VWS V14.01,2013-05-26 20:25:00,
2013-05-26 16:30:00,66.0,40.4,30.27,NE,45,2.6,2.6,39,0.00,,---,0.00,VWS V14.01,2013-05-26 20:30:00,
2013-05-26 16:35:00,66.0,40.4,30.27,NE,45,5.1,5.1,39,0.00,,---,0.00,VWS V14.01,2013-05-26 20:35:00,
2013-05-26 16:40:00,66.2,41.2,30.27,ENE,68,4.4,4.4,40,0.00,,---,0.00,VWS V14.01,2013-05-26 20:40:00,
2013-05-26 16:45:00,66.3,41.3,30.26,NE,45,6.9,6.9,40,0.00,,---,0.00,VWS V14.01,2013-05-26 20:45:00,
2013-05-26 16:50:00,66.3,40.6,30.26,SE,135,0.0,0.0,39,0.00,,---,0.00,VWS V14.01,2013-05-26 20:50:00,
2013-05-26 16:55:00,66.5,40.8,30.26,NE,45,1.7,1.7,39,0.00,,---,0.00,VWS V14.01,2013-05-26 20:55:00,
2013-05-26 17:00:00,66.5,40.8,30.26,North,0,2.4,2.4,39,0.00,,---,0.00,VWS V14.01,2013-05-26 21:00:00,
2013-05-26 17:05:00,66.5,40.1,30.26,NE,45,0.0,4.0,38,0.00,,---,0.00,VWS V14.01,2013-05-26 21:05:00,
2013-05-26 17:10:00,66.3,40.6,30.26,SE,135,0.0,0.0,39,0.00,,---,0.00,VWS V14.01,2013-05-26 21:10:00,
2013-05-26 17:15:00,66.5,40.1,30.26,East,90,1.3,1.3,38,0.00,,---,0.00,VWS V14.01,2013-05-26 21:15:00,
2013-05-26 17:20:00,66.9,41.2,30.26,ENE,68,2.0,2.0,39,0.00,,---,0.00,VWS V14.01,2013-05-26 21:20:00,
2013-05-26 17:25:00,67.1,41.3,30.26,NE,45,4.2,4.2,39,0.00,,---,0.00,VWS V14.01,2013-05-26 21:25:00,
2013-05-26 17:30:00,67.1,41.3,30.26,ENE,68,1.3,1.3,39,0.00,,---,0.00,VWS V14.01,2013-05-26 21:30:00,
2013-05-26 17:35:00,67.6,41.8,30.26,NE,45,2.2,2.9,39,0.00,,---,0.00,VWS V14.01,2013-05-26 21:35:00,
2013-05-26 17:40:00,68.1,42.2,30.25,NE,45,1.5,1.5,39,0.00,,---,0.00,VWS V14.01,2013-05-26 21:40:00,
2013-05-26 17:45:00,68.7,42.1,30.25,East,90,0.0,0.0,38,0.00,,---,0.00,VWS V14.01,2013-05-26 21:45:00,
2013-05-26 17:50:00,69.4,42.7,30.25,NE,45,0.0,1.7,38,0.00,,---,0.00,VWS V14.01,2013-05-26 21:50:00,
2013-05-26 17:55:00,69.6,43.6,30.25,ENE,68,1.7,1.7,39,0.00,,---,0.00,VWS V14.01,2013-05-26 21:55:00,
2013-05-26 18:00:00,69.8,43.8,30.25,ESE,112,0.0,0.0,39,0.00,,---,0.00,VWS V14.01,2013-05-26 22:00:00,
2013-05-26 18:05:00,69.9,43.8,30.25,ESE,112,0.0,0.0,39,0.00,,---,0.00,VWS V14.01,2013-05-26 22:05:00,
2013-05-26 18:10:00,69.9,43.8,30.25,ESE,112,0.0,0.0,39,0.00,,---,0.00,VWS V14.01,2013-05-26 22:10:00,
2013-05-26 18:15:00,69.6,43.6,30.25,NE,45,4.6,4.6,39,0.00,,---,0.00,VWS V14.01,2013-05-26 22:15:00,
2013-05-26 18:20:00,68.7,42.1,30.24,ENE,68,4.4,4.4,38,0.00,,---,0.00,VWS V14.01,2013-05-26 22:20:00,
2013-05-26 18:25:00,68.1,41.6,30.25,ENE,68,1.7,1.7,38,0.00,,---,0.00,VWS V14.01,2013-05-26 22:25:00,
2013-05-26 18:30:00,67.6,41.1,30.24,NE,45,2.6,2.6,38,0.00,,---,0.00,VWS V14.01,2013-05-26 22:30:00,
2013-05-26 18:35:00,67.1,41.3,30.25,ESE,112,0.0,0.0,39,0.00,,---,0.00,VWS V14.01,2013-05-26 22:35:00,
2013-05-26 18:40:00,66.9,41.2,30.24,NE,45,3.3,3.3,39,0.00,,---,0.00,VWS V14.01,2013-05-26 22:40:00,
2013-05-26 18:45:00,66.7,41.0,30.24,ENE,68,0.0,0.0,39,0.00,,---,0.00,VWS V14.01,2013-05-26 22:45:00,
2013-05-26 18:50:00,66.3,40.6,30.24,NNE,22,2.2,2.9,39,0.00,,---,0.00,VWS V14.01,2013-05-26 22:50:00,
2013-05-26 18:55:00,66.2,40.5,30.24,NE,45,4.0,4.0,39,0.00,,---,0.00,VWS V14.01,2013-05-26 22:55:00,
2013-05-26 19:00:00,66.0,40.4,30.24,ENE,68,1.5,1.5,39,0.00,,---,0.00,VWS V14.01,2013-05-26 23:00:00,
2013-05-26 19:05:00,65.8,40.2,30.24,NE,45,0.0,0.8,39,0.00,,---,0.00,VWS V14.01,2013-05-26 23:05:00,
2013-05-26 19:10:00,65.8,40.8,30.23,ENE,68,1.5,1.5,40,0.00,,---,0.00,VWS V14.01,2013-05-26 23:10:00,
2013-05-26 19:15:00,65.8,40.8,30.23,NE,45,4.0,4.0,40,0.00,,---,0.00,VWS V14.01,2013-05-26 23:15:00,
2013-05-26 19:20:00,65.8,40.8,30.23,NE,45,1.5,3.3,40,0.00,,---,0.00,VWS V14.01,2013-05-26 23:20:00,
2013-05-26 19:25:00,65.6,40.7,30.23,NE,45,0.0,0.0,40,0.00,,---,0.00,VWS V14.01,2013-05-26 23:25:00,
2013-05-26 19:30:00,65.4,40.5,30.23,NE,45,0.8,0.8,40,0.00,,---,0.00,VWS V14.01,2013-05-26 23:30:00,
2013-05-26 19:35:00,65.3,41.0,30.22,NE,45,0.0,0.0,41,0.00,,---,0.00,VWS V14.01,2013-05-26 23:35:00,
2013-05-26 19:40:00,65.1,40.8,30.23,NE,45,0.0,0.0,41,0.00,,---,0.00,VWS V14.01,2013-05-26 23:40:00,
2013-05-26 19:45:00,64.9,40.7,30.23,NE,45,2.9,2.9,41,0.00,,---,0.00,VWS V14.01,2013-05-26 23:45:00,
2013-05-26 19:50:00,64.7,41.1,30.23,NE,45,0.0,1.3,42,0.00,,---,0.00,VWS V14.01,2013-05-26 23:50:00,
2013-05-26 19:55:00,64.5,40.9,30.22,NE,45,5.3,5.3,42,0.00,,---,0.00,VWS V14.01,2013-05-26 23:55:00,
2013-05-26 20:00:00,64.2,40.7,30.23,ENE,68,0.0,0.0,42,0.00,,---,0.00,VWS V14.01,2013-05-27 00:00:00,
2013-05-26 20:05:00,64.0,41.1,30.22,ENE,68,0.0,2.0,43,0.00,,---,0.00,VWS V14.01,2013-05-27 00:05:00,
2013-05-26 20:10:00,63.6,41.3,30.23,NE,45,1.3,1.3,44,0.00,,---,0.00,VWS V14.01,2013-05-27 00:10:00,
2013-05-26 20:15:00,63.1,41.4,30.22,ENE,68,3.3,3.3,45,0.00,,---,0.00,VWS V14.01,2013-05-27 00:15:00,
2013-05-26 20:20:00,62.7,41.6,30.22,NE,45,0.0,0.0,46,0.00,,---,0.00,VWS V14.01,2013-05-27 00:20:00,
2013-05-26 20:25:00,62.4,41.4,30.23,NE,45,1.7,1.7,46,0.00,,---,0.00,VWS V14.01,2013-05-27 00:25:00,
2013-05-26 20:30:00,62.2,41.7,30.22,NE,45,0.0,0.0,47,0.00,,---,0.00,VWS V14.01,2013-05-27 00:30:00,
2013-05-26 20:35:00,61.5,41.7,30.23,NE,45,0.0,0.0,48,0.00,,---,0.00,VWS V14.01,2013-05-27 00:35:00,
2013-05-26 20:40:00,61.3,41.5,30.22,NE,45,1.7,1.7,48,0.00,,---,0.00,VWS V14.01,2013-05-27 00:40:00,
2013-05-26 20:45:00,60.9,41.6,30.23,ENE,68,1.7,1.7,49,0.00,,---,0.00,VWS V14.01,2013-05-27 00:45:00,
2013-05-26 20:50:00,60.4,41.7,30.23,NE,45,0.6,0.6,50,0.00,,---,0.00,VWS V14.01,2013-05-27 00:50:00,
2013-05-26 20:55:00,60.0,41.3,30.23,ENE,68,0.0,0.0,50,0.00,,---,0.00,VWS V14.01,2013-05-27 00:55:00,
2013-05-26 21:00:00,59.9,41.2,30.23,ENE,68,0.0,0.0,50,0.00,,---,0.00,VWS V14.01,2013-05-27 01:00:00,
2013-05-26 21:05:00,59.5,41.4,30.23,NE,45,0.0,0.0,51,0.00,,---,0.00,VWS V14.01,2013-05-27 01:05:00,
2013-05-26 21:10:00,59.1,41.0,30.23,ENE,68,0.0,0.0,51,0.00,,---,0.00,VWS V14.01,2013-05-27 01:10:00,
2013-05-26 21:15:00,58.8,41.2,30.23,ENE,68,0.0,0.0,52,0.00,,---,0.00,VWS V14.01,2013-05-27 01:15:00,
2013-05-26 21:20:00,58.8,41.2,30.23,ENE,68,0.0,0.0,52,0.00,,---,0.00,VWS V14.01,2013-05-27 01:20:00,
2013-05-26 21:25:00,58.4,41.3,30.23,ENE,68,0.0,0.0,53,0.00,,---,0.00,VWS V14.01,2013-05-27 01:25:00,
2013-05-26 21:30:00,58.2,41.7,30.23,ENE,68,0.0,0.0,54,0.00,,---,0.00,VWS V14.01,2013-05-27 01:30:00,
2013-05-26 21:35:00,57.9,41.4,30.23,ENE,68,0.0,0.0,54,0.00,,---,0.00,VWS V14.01,2013-05-27 01:35:00,
2013-05-26 21:40:00,57.7,41.2,30.23,ENE,68,0.0,0.0,54,0.00,,---,0.00,VWS V14.01,2013-05-27 01:40:00,
2013-05-26 21:45:00,57.3,41.3,30.23,ENE,68,0.0,0.0,55,0.00,,---,0.00,VWS V14.01,2013-05-27 01:45:00,
2013-05-26 21:50:00,57.0,41.0,30.23,NE,45,0.0,0.0,55,0.00,,---,0.00,VWS V14.01,2013-05-27 01:50:00,
2013-05-26 21:55:00,56.8,40.8,30.23,ENE,68,0.0,0.0,55,0.00,,---,0.00,VWS V14.01,2013-05-27 01:55:00,
2013-05-26 22:00:00,56.3,40.8,30.23,ENE,68,0.0,0.0,56,0.00,,---,0.00,VWS V14.01,2013-05-27 02:00:00,
2013-05-26 22:05:00,56.1,40.6,30.23,ENE,68,0.0,0.0,56,0.00,,---,0.00,VWS V14.01,2013-05-27 02:05:00,
2013-05-26 22:10:00,55.9,40.9,30.23,ENE,68,0.0,0.0,57,0.00,,---,0.00,VWS V14.01,2013-05-27 02:10:00,
2013-05-26 22:15:00,55.5,40.5,30.23,ENE,68,0.0,0.0,57,0.00,,---,0.00,VWS V14.01,2013-05-27 02:15:00,
2013-05-26 22:20:00,55.2,40.7,30.23,ENE,68,0.0,0.0,58,0.00,,---,0.00,VWS V14.01,2013-05-27 02:20:00,
2013-05-26 22:25:00,55.0,40.5,30.23,ENE,68,0.0,0.0,58,0.00,,---,0.00,VWS V14.01,2013-05-27 02:25:00,
2013-05-26 22:30:00,54.6,40.1,30.23,ENE,68,0.0,0.0,58,0.00,,---,0.00,VWS V14.01,2013-05-27 02:30:00,
2013-05-26 22:35:00,54.3,40.3,30.23,ENE,68,0.0,0.0,59,0.00,,---,0.00,VWS V14.01,2013-05-27 02:35:00,
2013-05-26 22:40:00,54.1,40.1,30.23,ENE,68,0.0,0.0,59,0.00,,---,0.00,VWS V14.01,2013-05-27 02:40:00,
2013-05-26 22:45:00,53.7,40.2,30.23,NE,45,0.0,0.0,60,0.00,,---,0.00,VWS V14.01,2013-05-27 02:45:00,
2013-05-26 22:50:00,53.6,40.5,30.23,NE,45,0.0,0.0,61,0.00,,---,0.00,VWS V14.01,2013-05-27 02:50:00,
2013-05-26 22:55:00,53.4,40.3,30.23,NE,45,0.0,0.0,61,0.00,,---,0.00,VWS V14.01,2013-05-27 02:55:00,
2013-05-26 23:00:00,53.2,40.1,30.24,NE,45,0.0,0.0,61,0.00,,---,0.00,VWS V14.01,2013-05-27 03:00:00,
2013-05-26 23:05:00,53.0,40.3,30.24,NE,45,0.0,0.0,62,0.00,,---,0.00,VWS V14.01,2013-05-27 03:05:00,
2013-05-26 23:10:00,52.8,40.2,30.24,NE,45,0.0,0.0,62,0.00,,---,0.00,VWS V14.01,2013-05-27 03:10:00,
2013-05-26 23:15:00,52.5,39.9,30.24,NE,45,0.0,0.0,62,0.00,,---,0.00,VWS V14.01,2013-05-27 03:15:00,
2013-05-26 23:20:00,52.5,39.9,30.24,NE,45,0.0,0.0,62,0.00,,---,0.00,VWS V14.01,2013-05-27 03:20:00,
2013-05-26 23:25:00,52.3,40.1,30.23,NE,45,0.0,0.0,63,0.00,,---,0.00,VWS V14.01,2013-05-27 03:25:00,
2013-05-26 23:30:00,52.1,39.9,30.24,NE,45,0.0,0.0,63,0.00,,---,0.00,VWS V14.01,2013-05-27 03:30:00,
2013-05-26 23:35:00,51.9,39.7,30.23,NE,45,0.0,0.0,63,0.00,,---,0.00,VWS V14.01,2013-05-27 03:35:00,
2013-05-26 23:40:00,51.9,39.7,30.24,NE,45,0.0,0.0,63,0.00,,---,0.00,VWS V14.01,2013-05-27 03:40:00,
2013-05-26 23:45:00,51.8,39.6,30.23,NE,45,0.0,0.0,63,0.00,,---,0.00,VWS V14.01,2013-05-27 03:45:00,
2013-05-26 23:50:00,51.6,39.4,30.23,NE,45,0.0,0.0,63,0.00,,---,0.00,VWS V14.01,2013-05-27 03:50:00,
2013-05-26 23:55:00,51.6,39.8,30.24,NE,45,0.0,0.0,64,0.00,,---,0.00,VWS V14.01,2013-05-27 03:55:00,